Powrót do katalogu

THOR ABLESTAR DEB

AktywnyLEO
NORAD 652·DEBRIS·🇺🇸 United States

Wystrzelony Jun 29, 1961 z Cape Canaveral Space Force Station

Loading…

Następne Przeloty (najbliższe 24 godziny)

TLE

ŚwieżeSource: Space-Track

Epoka: Sep 14, 2026, 07:19 UTC

1 00652U 61015HD  26257.30537743  .00001089  00000-0  54588-3 0  9991
2 00652  66.7034 237.7486 0076857 290.8437  68.4436 14.18913786306507

Śledź THOR ABLESTAR DEB w czasie rzeczywistym z AllMySat

Download on the App Store